STARLINK-2083, 47676

Orbit data source: Space-Track

STARLINK-2083, 47676 is a payload satellite owned by SpaceX/Seattle (US) in LEO that was launched on Tue, 16 Feb 2021 UTC via an FALCON 9 launch vehicle from the Air Force Eastern Test Range (AFETR). Payload-class satellites include a variety of spacecraft equipped with specific instruments for various scientific and technological missions. These include communications satellites like Starlink; space stations such as the ISS; scientific satellites like the Hubble; Earth observation satellites from companies like Planet Labs, Umbra, and HawkEye 360; GPS; miniature CubeSats for education and research; and military/defense satellites.

Loading next visibility...
Identifier
47676, 2021-012BJ
Orbit
LEO
Country
Flag of USUS
Related business
Manufacturer
SpaceX/Seattle
Mission
Partially operational Commercial Communications
Bus & Motor
STARLINK, Unknown motor
Mass
260 kg wet, ~248 kg dry
Launch date (UTC)
2021-02-16 (5 years ago)
Launch vehicle
FALCON 9
Launch site
Air Force Eastern Test Range (AFETR)
Object type
Payload
Rocket body
Debris
Shape & HBR
Box + 1 Pan, 10.1 m
Radar Cross Section
13.562 m², Large (>1 m²)

Expand to show TLE details & history
Last TLE update: 2 days ago

TLE from 2 days ago
0 STARLINK-2083
1 47676U 21012BJ  26171.41668980  .00160859  00000-0  74599-3 0  9991
2 47676  53.0395 134.1140 0006818  56.5896 213.4254 15.82442493  5708
Epoch: 2026-06-20T10:00Z
TLE epoch observation values (Epoch: 2026-06-20T10:00:01.998Z)
Latitude
-53.1945°
Longitude
-14.57248°
Altitude
345.809 km
Speed
7.699 km/s
True Right ascension
02h 56m 16s
True Declination
-53° 01' 09"
Sunlit
Object was in daylight at epoch
Visualization orbit readout
Latitude
Unknown
Longitude
Unknown
Altitude
Unknown
Speed
Unknown
Apparent Right ascension
Unknown
Apparent Declination
Unknown
Sunlit
N/A
Visualization observer readout
Local Sidereal Time
21:41:41
Azimuth
Unknown
Elevation
Unknown
Doppler factor
Unknown
Orbital elements
Apogee altitude
328.387 km
Perigee altitude
319.248 km
Semi-major axis
6,701.955 km
Eccentricity
0.00068
Inclination
53.0395°
RAAN
134.114°
Arg. of periapsis
56.5896°
True anomaly
213.38239°
Mean anomaly
213.4254°
Eccentric anomaly
213.40389°
Mean motion
3.95586 °/min
Orbital period
91 mins
BSTAR
0.00074599
Loading maneuver chart data...
Computing Atmospheric mass density...

Documentation

Showing up to 5 results
|